www.pogodaiklimat.ru

Погода и климат >> Архив погоды >> Китай >> Шаньдун >> Динтао


ПОГОДА в Динтао

  • Прогноз погоды в Динтао
  • Монитор погоды в Динтао

АРХИВ ПОГОДЫ в Динтао

Время (UTC), дата Ветер
(напр.,м/с)
 
Видим.   Явления Облачность Т
(С)
Тd
(С)
f
(%)
Тe
(С)
Тes
(С)
Комфортность P
(гПа)
Po
(гПа)
Тmin
(С)
Tmax
(С)
R
(мм)
R24
(мм)
S
(см)
15 14.07 Ю 2 16 км н/о +27.6 +21.4 69 +35 +35 очень
душно
1002.9 997.3
18 14.07 Ю 1 10 км н/о +26.3 +21.1 73 +33 +33 очень
душно
1002.8 997.2 +34.1
21 14.07 Ю 1 н/о дымка н/о +24.0 +21.3 85 +30 +30 очень
душно
1003.6 998.0
00 15.07 ЮЗ 3 6000 м дымка 8/8
[]
+27.5 +22.5 74 +36 +37 очень
душно
1005.2 999.6
03 15.07 З 2 15 км 8/8
[]
+31.8 +22.8 59 +42 +45 опасность
перегрева
1005.3 999.8
06 15.07 Ю 2 13 км 9/9 1000 м
[]
+33.9 +21.3 48 +42 +43 опасность
перегрева
1004.1 998.6 +23.5
09 15.07 Ю 1 22 км 9/9 1000 м
[]
+33.8 +19.5 43 +39 +40 очень
душно
1003.2 997.7
12 15.07 Ю 1 12 км 9/9
[]
+29.5 +23.0 68 +39 +39 очень
душно
1004.3 998.8
15 15.07 Ю 1 10 км н/о +27.6 +22.3 73 +36 +36 очень
душно
1005.6 1000.0
18 15.07 ЮВ 1 7000 м дымка н/о +26.5 +21.3 73 +34 +34 очень
душно
1005.6 1000.0 +34.5
21 15.07 З 1 4100 м дымка н/о +24.6 +21.5 83 +31 +31 очень
душно
1005.7 1000.1
00 16.07 В 1 4600 м дымка 9/9
[]
+27.5 +22.2 73 +36 +37 очень
душно
1006.7 1001.1
03 16.07 штиль 0 6000 м мгла 9/9
[]
+31.8 +21.0 53 +39 +42 очень
душно
1007.2 1001.7
06 16.07 В 2 9000 м 9/9
[]
+31.7 +21.5 55 +40 +42 очень
душно
1005.9 1000.4 +24.2
09 16.07 В 2 7000 м 9/9
[]
+31.4 +22.4 59 +41 +41 опасность
перегрева
1005.1 999.6
12 16.07 В 2 6000 м мгла 9/9
[]
+29.9 +21.6 61 +38 +38 очень
душно
1005.4 999.9
15 16.07 В 2 4400 м мгла н/о +29.0 +21.8 65 +37 +37 очень
душно
1006.6 1001.0
18 16.07 В 2 2600 м слаб. дождь ?/? +25.9 +22.0 79 +33 +33 очень
душно
1006.3 1000.7 +32.2 0.4
21 16.07 В 1 3700 м дымка н/о +25.6 +21.7 79 +33 +33 очень
душно
1005.9 1000.3
00 17.07 В 2 3600 м дымка 10/10
[]
+26.4 +22.7 80 +35 +35 очень
душно
1006.9 1001.3 0.2
03 17.07 ЮВ 1 4500 м дымка {дождь} 9/9
[]
+28.8 +23.9 75 +40 +42 очень
душно
1007.1 1001.5
06 17.07 ЮВ 2 4900 м мгла {дождь} 9/9 1000 м
[]
+31.2 +22.5 60 +41 +42 опасность
перегрева
1005.6 1000.1 +25.2 0.0
09 17.07 В 3 7000 м мгла 10/10
[]
+30.5 +21.9 60 +39 +39 очень
душно
1004.9 999.4
12 17.07 В 2 10 км 9/9
[]
+28.5 +21.0 64 +36 +36 очень
душно
1005.9 1000.3
15 17.07 Ю 1 5000 м дымка ?/? +25.6 +21.7 79 +33 +33 очень
душно
1006.8 1001.2
18 17.07 В 2 4100 м дымка н/о +24.4 +21.7 85 +31 +31 очень
душно
1006.3 1000.7 +31.9
21 17.07 В 2 1800 м дымка н/о +23.7 +21.6 88 +30 +30 очень
душно
1006.0 1000.3
00 18.07 СВ 2 7000 м дымка 9/9
[]
+26.1 +21.5 76 +33 +34 очень
душно
1006.7 1001.1
03 18.07 В 2 10 км 9/9
[]
+29.5 +22.0 64 +38 +40 очень
душно
1006.1 1000.5
06 18.07 С 3 11 км 8/8 1000 м
[]
+32.2 +21.4 53 +40 +43 очень
душно
1004.5 999.0 +23.5
09 18.07 В 2 15 км 8/8 1000 м
[]
+32.7 +19.6 46 +38 +39 очень
душно
1003.1 997.6
12 18.07 Ю 1 12 км 9/9
[]
+29.8 +20.9 59 +37 +37 очень
душно
1003.6 998.1
15 18.07 Ю 1 12 км н/о +27.4 +21.2 69 +35 +35 очень
душно
1004.8 999.2
18 18.07 штиль 0 н/о дымка н/о +24.7 +21.8 84 +32 +32 очень
душно
1004.0 998.4 +33.2
21 18.07 СВ 1 4400 м дымка н/о +23.7 +21.4 87 +30 +30 очень
душно
1003.5 997.9
00 19.07 В 2 7000 м дымка 3/3
[]
+28.1 +21.6 68 +36 +40 очень
душно
1004.0 998.4
03 19.07 В 3 12 км 9/9 1000 м
[]
+31.3 +22.0 58 +40 +42 очень
душно
1004.0 998.5
06 19.07 В 2 23 км 9/9 1000 м
[]
+31.4 +23.2 62 +42 +44 опасность
перегрева
1003.3 997.8 +23.4
09 19.07 ЮВ 2 30 км 3/3
[]
+31.4 +22.1 58 +40 +44 очень
душно
1002.3 996.8
12 19.07 В 1 29 км 5/5
[]
+29.3 +22.5 67 +39 +39 очень
душно
1002.5 997.0
15 19.07 Ю 1 19 км н/о +26.9 +23.4 81 +36 +36 очень
душно
1003.3 997.7
18 19.07 Ю 1 10 км н/о +25.9 +23.0 84 +35 +35 очень
душно
1003.2 997.6 +32.3
21 19.07 Ю 3 н/о дымка н/о +25.1 +23.2 89 +34 +34 очень
душно
1003.3 997.7
00 20.07 Ю 3 7000 м дымка 9/9
[]
+27.8 +24.4 82 +39 +40 очень
душно
1004.0 998.4 0.0
03 20.07 Ю 3 17 км 9/9
[]
+32.1 +24.2 63 +44 +46 опасность
перегрева
1003.6 998.1
06 20.07 З 2 28 км 8/8 1000 м
[]
+34.5 +22.9 51 +44 +48 опасность
перегрева
1002.2 996.8 +24.7
09 20.07 ЮЗ 2 23 км 9/9 1000 м
[]
+33.1 +24.3 60 +45 +46 опасность
перегрева
1001.2 995.7
12 20.07 С 2 4900 м дымка 9/9 1000 м
[]
+29.0 +24.1 75 +40 +40 очень
душно
1002.9 997.4
15 20.07 СВ 1 4900 м дымка н/о +28.0 +24.2 80 +39 +39 очень
душно
1003.3 997.7
18 20.07 С 1 3100 м дымка н/о +27.8 +24.6 83 +39 +39 очень
душно
1003.3 997.7 +35.5
21 20.07 С 2 3300 м дымка н/о +27.6 +23.6 79 +38 +38 очень
душно
1003.5 997.9
00 21.07 В 1 3500 м дымка 10/10
[]
+28.4 +23.8 76 +39 +39 очень
душно
1004.3 998.7 0.0
03 21.07 С 1 4700 м мгла 9/9
[]
+32.3 +24.1 62 +44 +46 опасность
перегрева
1004.4 998.9
06 21.07 З 1 7000 м 9/9 1000 м
[]
+35.5 +25.1 55 +49 +51 опасность
перегрева
1003.0 997.6 +27.5
09 21.07 Ю 1 10 км 9/9 1000 м
[]
+35.6 +24.2 52 +48 +48 опасность
перегрева
1001.8 996.4
12 21.07 В 2 8000 м 10/10
[]
+32.7 +25.0 64 +46 +46 опасность
перегрева
1002.5 997.0

 

Местоположение метеостанции Динтао (Шаньдун, Китай): широта 35.07 долгота 115.56 высота над уровнем моря 49 м.

В архиве по умолчанию представлена погода в Динтао за последнюю неделю. Архивные данные за месяц целиком и за предыдущие месяцы, начиная с января 2011 года, Вы можете получить, выбрав интересующий диапазон дат из раскрывающегося списка и нажав кнопку "Ввод!".


*Определитесь, кто Вы:
робот инопланетянин человек

Внимание! Время в таблицах - всемирное. Для получения местного времени необходимо прибавить поправку, которая равна 8 ч.

Смотрите также архив погоды в соседних городах и на ближайших метеорологических станциях:

Погода в Синьсяне (Хэнань, Китай) (129 км)
Погода в Яньчжоу (Шаньдун, Китай) (130 км)
Погода в Босяне (Хунань, Китай) (134 км)
Погода в Аньяне (Хэнань, Китай) (151 км)
Погода в Сюйчжоу (Цзянсу, Китай) (170 км)
Погода в Сихуа (Хэнань, Китай) (173 км)
Погода в Чжэнчжоу (Хэнань, Китай) (179 км)
Погода на Тайшане (Шаньдун, Китай) (191 км)
Погода в Цзинане (Шаньдун, Китай) (217 км)
Погода в Фэйсяне (Шаньдун, Китай) (218 км)

Пояснения к столбцам:

Ветер - указаны скорость ветра в м/с - средняя за 10 мин, порывы в срок и между сроками (в фигурных скобках) и направление, откуда дует ветер: С - северный, СВ - северо-восточный, В - восточный, ЮВ - юго-восточный, Ю - южный, ЮЗ - юго-западный, З - западный, СЗ - северо-западный.
Видимость - горизонтальная дальность видимости в метрах или километрах. При видимости от 1 до 10 км при отсутствии осадков обычно наблюдается дымка, при ухудшении видимости до 1 км и менее - туман. В сухую погоду видимость может ухудшаться дымом, пылью или мглою.
Явления - указаны атмосферные явления, наблюдавшиеся в срок или в последний час перед сроком; фигурными скобками обозначены явления, наблюдавшиеся между сроками (за 1-3 часа до срока); квадратными скобками обозначены град или гололедные отложения с указанием их диаметра в мм.
Облачность - указаны через наклонную черту общая и нижняя облачность в баллах и высота нижней границы облаков в метрах; квадратными скобками обозначены формы облаков: Ci - перистые, Cs - перисто-слоистые, Cc - перисто-кучевые, Ac - высококучевые, As - высокослоистые, Sc - слоисто-кучевые, Ns - слоисто-дождевые, Cu - кучевые, Cb - кучево-дождевые. Подробнее классификацию облаков см. в Атласе облаков (PDF).
T - Температура воздуха - температура, измеренная на высоте 2 м над землей.
Td - Температура точки росы - температура, при понижении до которой содержащийся в воздухе водяной пар достигнет насыщения.
f - Относительная влажность воздуха - влажноcть воздуха, измеренная на высоте 2 м над землей.
Te - Эффективная температура - температура, которую ощущает одетый по сезону человек в тени. Характеристика душности погоды. При расчете учитывается влияние влажности воздуха и скорости ветра на теплоощущения человека.
Tes - Эффективная температура на солнце - температура, которую ощущает человек, с поправкой на солнечный нагрев. Характеристика знойности погоды. Зависит от высоты солнца над горизонтом, облачности и скорости ветра. Ночью, в пасмурную погоду, а также при ветре 12 м/с и более поправка равна нулю.
P - Атмосферное давление - приведенное к уровню моря атмосферное давление.
Po - Атмосферное давление - измеренное на уровне метеостанции атмосферное давление.
Tmin - Минимальная температура - минимум температуры воздуха на высоте 2 м над землей.
Tmax - Максимальная температура - максимум температуры воздуха на высоте 2 м над землей.
R - Количество осадков - Количество выпавших осадков за период времени, мм. При наведении курсора мыши на число - период времени, за который выпало указанное количество осадков.
R24 - Количество осадков - Количество выпавших осадков за 24 часа, мм.
S - Снежный покров - Высота снежного покрова, см. При наведении курсора мыши на число - состояние снежного покрова и степень покрытия местности в баллах.